Time,TemperatureF,DewpointF,PressureIn,WindDirection,WindDirectionDegrees,WindSpeedMPH,WindSpeedGustMPH,Humidity,HourlyPrecipIn,Conditions,Clouds,dailyrainin,SoftwareType,DateUTC
2014-02-17 00:02:00,12.0,5.0,-100.00,NE,40,1.0,4.0,74,0.00,,,-99.99,,2014-02-17 06:02:00,
2014-02-17 00:12:00,12.0,5.0,-100.00,NE,40,1.0,4.0,74,0.00,,,-99.99,,2014-02-17 06:12:00,
2014-02-17 00:52:00,13.0,6.0,-100.00,ENE,65,1.0,3.0,76,0.00,,,-99.99,,2014-02-17 06:52:00,
2014-02-17 01:02:00,13.0,6.0,-100.00,ENE,65,1.0,3.0,76,0.00,,,-99.99,,2014-02-17 07:02:00,
2014-02-17 01:11:00,13.0,6.0,-100.00,ENE,65,1.0,3.0,76,0.00,,,-99.99,,2014-02-17 07:11:00,
2014-02-17 01:52:00,14.0,8.0,-100.00,ENE,65,2.0,3.0,79,0.00,,,-99.99,,2014-02-17 07:52:00,
2014-02-17 02:02:00,14.0,8.0,-100.00,ENE,65,2.0,3.0,79,0.00,,,-99.99,,2014-02-17 08:02:00,
2014-02-17 02:11:00,14.0,8.0,-100.00,ENE,65,2.0,3.0,79,0.00,,,-99.99,,2014-02-17 08:11:00,
2014-02-17 02:52:00,16.0,11.0,-100.00,ENE,70,1.0,4.0,82,0.00,,,-99.99,,2014-02-17 08:52:00,
2014-02-17 03:02:00,16.0,11.0,-100.00,ENE,70,1.0,4.0,82,0.00,,,-99.99,,2014-02-17 09:02:00,
2014-02-17 03:12:00,16.0,11.0,-100.00,ENE,70,1.0,4.0,82,0.00,,,-99.99,,2014-02-17 09:12:00,
2014-02-17 03:54:00,17.0,12.0,-100.00,NE,50,0.0,4.0,84,0.45,,,-99.99,,2014-02-17 09:54:00,
2014-02-17 04:03:00,17.0,12.0,-100.00,NE,50,0.0,4.0,84,0.45,,,-99.99,,2014-02-17 10:03:00,
2014-02-17 04:13:00,17.0,12.0,-100.00,NE,50,0.0,4.0,84,0.45,,,-99.99,,2014-02-17 10:13:00,
2014-02-17 04:53:00,17.0,14.0,-100.00,ENE,75,1.0,5.0,88,0.00,,,-99.99,,2014-02-17 10:53:00,
2014-02-17 05:02:00,17.0,14.0,-100.00,ENE,75,1.0,5.0,88,0.00,,,-99.99,,2014-02-17 11:02:00,
2014-02-17 05:12:00,17.0,14.0,-100.00,ENE,75,1.0,5.0,88,0.00,,,-99.99,,2014-02-17 11:12:00,
2014-02-17 05:52:00,18.0,16.0,-100.00,ENE,65,3.0,9.0,90,0.00,,,-99.99,,2014-02-17 11:52:00,
2014-02-17 06:02:00,18.0,16.0,-100.00,ENE,65,3.0,9.0,90,0.00,,,-99.99,,2014-02-17 12:02:00,
2014-02-17 06:12:00,18.0,16.0,-100.00,ENE,65,3.0,9.0,90,0.00,,,-99.99,,2014-02-17 12:12:00,
2014-02-17 06:52:00,21.0,17.0,-100.00,SSE,165,7.0,17.0,86,0.00,,,-99.99,,2014-02-17 12:52:00,
2014-02-17 07:02:00,21.0,17.0,-100.00,SSE,165,7.0,17.0,86,0.00,,,-99.99,,2014-02-17 13:02:00,
2014-02-17 07:12:00,21.0,17.0,-100.00,SSE,165,7.0,17.0,86,0.00,,,-99.99,,2014-02-17 13:12:00,
2014-02-17 07:52:00,22.0,17.0,-100.00,SSE,165,11.0,21.0,83,0.00,,,-99.99,,2014-02-17 13:52:00,
2014-02-17 08:02:00,22.0,17.0,-100.00,SSE,165,11.0,21.0,83,0.00,,,-99.99,,2014-02-17 14:02:00,
2014-02-17 08:12:00,22.0,17.0,-100.00,SSE,165,11.0,21.0,83,0.00,,,-99.99,,2014-02-17 14:12:00,
2014-02-17 08:53:00,22.0,17.0,-100.00,SSE,155,11.0,21.0,81,0.00,,,-99.99,,2014-02-17 14:53:00,
2014-02-17 09:02:00,22.0,17.0,-100.00,SSE,155,11.0,21.0,81,0.00,,,-99.99,,2014-02-17 15:02:00,
2014-02-17 09:11:00,22.0,17.0,-100.00,SSE,155,11.0,21.0,81,0.00,,,-99.99,,2014-02-17 15:11:00,
2014-02-17 09:52:00,23.0,17.0,-100.00,SSE,150,11.0,21.0,77,0.00,,,-99.99,,2014-02-17 15:52:00,
2014-02-17 10:03:00,23.0,17.0,-100.00,SSE,150,11.0,21.0,77,0.00,,,-99.99,,2014-02-17 16:03:00,
2014-02-17 10:13:00,23.0,17.0,-100.00,SSE,150,11.0,21.0,77,0.00,,,-99.99,,2014-02-17 16:13:00,
2014-02-17 10:53:00,22.0,20.0,-100.00,SSE,150,4.0,12.0,91,0.14,,,-99.99,,2014-02-17 16:53:00,
2014-02-17 11:02:00,22.0,20.0,-100.00,SSE,150,4.0,12.0,91,0.14,,,-99.99,,2014-02-17 17:02:00,
2014-02-17 11:12:00,22.0,20.0,-100.00,SSE,150,4.0,12.0,91,0.14,,,-99.99,,2014-02-17 17:12:00,
2014-02-17 11:52:00,23.0,21.0,-100.00,SE,130,4.0,11.0,93,2.71,,,-99.99,,2014-02-17 17:52:00,
2014-02-17 12:02:00,23.0,21.0,-100.00,SE,130,4.0,11.0,93,2.71,,,-99.99,,2014-02-17 18:02:00,
2014-02-17 12:12:00,23.0,21.0,-100.00,SE,130,4.0,11.0,93,2.71,,,-99.99,,2014-02-17 18:12:00,
2014-02-17 12:43:00,23.0,21.0,-100.00,SE,135,6.0,13.0,93,0.17,,,-99.99,,2014-02-17 18:43:00,
2014-02-17 12:52:00,23.0,21.0,-100.00,SE,135,6.0,13.0,93,0.17,,,-99.99,,2014-02-17 18:52:00,
2014-02-17 13:02:00,23.0,21.0,-100.00,SE,135,6.0,13.0,93,0.17,,,-99.99,,2014-02-17 19:02:00,
2014-02-17 13:12:00,23.0,21.0,-100.00,SE,135,6.0,13.0,93,0.17,,,-99.99,,2014-02-17 19:12:00,
2014-02-17 13:42:00,24.0,22.0,-100.00,SE,140,4.0,8.0,93,1.23,,,-99.99,,2014-02-17 19:42:00,
2014-02-17 13:53:00,24.0,22.0,-100.00,SE,140,4.0,8.0,93,1.23,,,-99.99,,2014-02-17 19:53:00,
2014-02-17 14:02:00,24.0,22.0,-100.00,SE,140,4.0,8.0,93,1.23,,,-99.99,,2014-02-17 20:02:00,
2014-02-17 14:11:00,24.0,22.0,-100.00,SE,140,4.0,8.0,93,1.23,,,-99.99,,2014-02-17 20:11:00,
2014-02-17 14:53:00,25.0,23.0,-100.00,SSE,165,2.0,5.0,93,1.19,,,-99.99,,2014-02-17 20:53:00,
2014-02-17 15:02:00,25.0,23.0,-100.00,SSE,165,2.0,5.0,93,1.19,,,-99.99,,2014-02-17 21:02:00,
2014-02-17 15:12:00,25.0,23.0,-100.00,SSE,165,2.0,5.0,93,1.19,,,-99.99,,2014-02-17 21:12:00,
2014-02-17 15:53:00,23.0,21.0,-100.00,ESE,120,2.0,6.0,93,0.07,,,-99.99,,2014-02-17 21:53:00,
2014-02-17 16:03:00,23.0,21.0,-100.00,ESE,120,2.0,6.0,93,0.07,,,-99.99,,2014-02-17 22:03:00,
2014-02-17 16:12:00,23.0,21.0,-100.00,ESE,120,2.0,6.0,93,0.07,,,-99.99,,2014-02-17 22:12:00,
2014-02-17 16:52:00,23.0,21.0,-100.00,NE,45,2.0,4.0,93,0.10,,,-99.99,,2014-02-17 22:52:00,
2014-02-17 17:02:00,23.0,21.0,-100.00,NE,45,2.0,4.0,93,0.10,,,-99.99,,2014-02-17 23:02:00,
2014-02-17 17:12:00,23.0,21.0,-100.00,NE,45,2.0,4.0,93,0.10,,,-99.99,,2014-02-17 23:12:00,
2014-02-17 17:53:00,23.0,21.0,-100.00,ESE,115,0.0,2.0,93,0.47,,,-99.99,,2014-02-17 23:53:00,
2014-02-17 18:02:00,23.0,21.0,-100.00,ESE,115,0.0,2.0,93,0.47,,,-99.99,,2014-02-18 00:02:00,
2014-02-17 18:11:00,23.0,21.0,-100.00,ESE,115,0.0,2.0,93,0.47,,,-99.99,,2014-02-18 00:11:00,
2014-02-17 18:52:00,21.0,20.0,-100.00,NE,40,1.0,1.0,93,0.03,,,-99.99,,2014-02-18 00:52:00,
2014-02-17 19:01:00,21.0,20.0,-100.00,NE,40,1.0,1.0,93,0.03,,,-99.99,,2014-02-18 01:01:00,
2014-02-17 19:12:00,21.0,20.0,-100.00,NE,40,1.0,1.0,93,0.03,,,-99.99,,2014-02-18 01:12:00,
2014-02-17 19:53:00,19.0,17.0,-100.00,NNW,330,0.0,1.0,93,0.00,,,-99.99,,2014-02-18 01:53:00,
2014-02-17 20:02:00,19.0,17.0,-100.00,NNW,330,0.0,1.0,93,0.00,,,-99.99,,2014-02-18 02:02:00,
2014-02-17 20:12:00,19.0,17.0,-100.00,NNW,330,0.0,1.0,93,0.00,,,-99.99,,2014-02-18 02:12:00,
2014-02-17 20:52:00,19.0,17.0,-100.00,SW,215,0.0,1.0,93,0.00,,,-99.99,,2014-02-18 02:52:00,
2014-02-17 21:02:00,19.0,17.0,-100.00,SW,215,0.0,1.0,93,0.00,,,-99.99,,2014-02-18 03:02:00,
2014-02-17 21:11:00,19.0,17.0,-100.00,SW,215,0.0,1.0,93,0.00,,,-99.99,,2014-02-18 03:11:00,
2014-02-17 21:53:00,20.0,18.0,-100.00,NW,305,3.0,4.0,93,0.00,,,-99.99,,2014-02-18 03:53:00,
2014-02-17 22:04:00,20.0,18.0,-100.00,NW,305,3.0,4.0,93,0.00,,,-99.99,,2014-02-18 04:04:00,
2014-02-17 22:13:00,20.0,18.0,-100.00,NW,305,3.0,4.0,93,0.00,,,-99.99,,2014-02-18 04:13:00,
2014-02-17 22:53:00,20.0,18.0,-100.00,West,265,4.0,6.0,93,0.00,,,-99.99,,2014-02-18 04:53:00,
2014-02-17 23:03:00,20.0,18.0,-100.00,West,265,4.0,6.0,93,0.00,,,-99.99,,2014-02-18 05:03:00,
2014-02-17 23:12:00,20.0,18.0,-100.00,West,265,4.0,6.0,93,0.00,,,-99.99,,2014-02-18 05:12:00,
2014-02-17 23:53:00,22.0,20.0,-100.00,West,265,7.0,13.0,93,0.00,,,-99.99,,2014-02-18 05:53:00,